,,PA_Meas_PMT16A,,PR_Meas_QMR101_102,,RH_Meas_QMH101,,SR_Meas_QMS101,,TA_Meas_QMH101,,GenWind,,GenWind,
time,status,PA,status,PR,status,RH,status,SR,status,TA,status,DirAvg,status,SpdAvg,
2013-01-01, 08:29:04,VALID,917.151,VALID,0,VALID,92.9904,VALID,142.36,VALID,20.1544,VALID,9,VALID,0,
2013-01-01, 08:30:04,VALID,917.197,VALID,0,VALID,92.1519,VALID,145.368,VALID,20.0749,VALID,306,VALID,0,
2013-01-01, 08:31:04,VALID,917.349,VALID,0,VALID,92.533,VALID,147.839,VALID,20.0749,VALID,353,VALID,0,
2013-01-01, 08:32:04,VALID,917.305,VALID,0,VALID,93.0667,VALID,150.31,VALID,20.0944,VALID,353,VALID,0,
2013-01-01, 08:33:04,VALID,917.244,VALID,0,VALID,93.7299,VALID,152.781,VALID,20.1934,VALID,353,VALID,0,
2013-01-01, 08:34:04,VALID,917.259,VALID,0,VALID,93.6918,VALID,155.682,VALID,20.1724,VALID,321,VALID,0,
2013-01-01, 08:35:04,VALID,917.345,VALID,0,VALID,93.3259,VALID,158.153,VALID,20.0944,VALID,317,VALID,0,
2013-01-01, 08:36:04,VALID,917.212,VALID,0,VALID,93.6613,VALID,160.947,VALID,20.0944,VALID,318,VALID,0,
2013-01-01, 08:37:04,VALID,917.392,VALID,0,VALID,93.6689,VALID,163.955,VALID,20.0749,VALID,319,VALID,0,
2013-01-01, 08:38:04,VALID,917.296,VALID,0,VALID,93.4402,VALID,167.286,VALID,20.0553,VALID,318,VALID,0,
2013-01-01, 08:39:04,VALID,917.934,VALID,0,VALID,93.3259,VALID,171.154,VALID,20.0944,VALID,318,VALID,0,
2013-01-01, 08:40:04,VALID,917.302,VALID,0,VALID,93.5317,VALID,175.559,VALID,20.1139,VALID,318,VALID,0,
2013-01-01, 08:41:04,VALID,917.388,VALID,0,VALID,93.7756,VALID,180.501,VALID,20.2114,VALID,318,VALID,0,
2013-01-01, 08:42:04,VALID,917.379,VALID,0,VALID,93.6003,VALID,186.303,VALID,20.2114,VALID,318,VALID,0,
2013-01-01, 08:43:04,VALID,917.346,VALID,0,VALID,93.6537,VALID,192.642,VALID,20.2309,VALID,305,VALID,0,
2013-01-01, 08:44:04,VALID,917.287,VALID,0,VALID,93.4021,VALID,198.551,VALID,20.2309,VALID,305,VALID,0,
2013-01-01, 08:45:04,VALID,917.37,VALID,0,VALID,93.1353,VALID,203.923,VALID,20.2504,VALID,305,VALID,0,
2013-01-01, 08:46:04,VALID,917.271,VALID,0,VALID,92.7998,VALID,208.328,VALID,20.2309,VALID,311,VALID,0,
2013-01-01, 08:47:04,VALID,917.328,VALID,0,VALID,93.0514,VALID,211.874,VALID,20.2699,VALID,309,VALID,0,
2013-01-01, 08:48:04,VALID,917.295,VALID,0,VALID,93.242,VALID,214.345,VALID,20.2894,VALID,309,VALID,0,
2013-01-01, 08:49:04,VALID,917.196,VALID,0,VALID,92.838,VALID,216.386,VALID,20.3089,VALID,307,VALID,0,
2013-01-01, 08:50:04,VALID,917.391,VALID,0,VALID,92.3119,VALID,218.32,VALID,20.2894,VALID,300,VALID,0,
2013-01-01, 08:51:04,VALID,917.378,VALID,0,VALID,93.2191,VALID,219.825,VALID,20.4064,VALID,300,VALID,0,
2013-01-01, 08:52:04,VALID,917.265,VALID,0,VALID,93.1734,VALID,220.792,VALID,20.465,VALID,313,VALID,0,
2013-01-01, 08:53:04,VALID,917.504,VALID,0,VALID,92.9676,VALID,221.866,VALID,20.543,VALID,329,VALID,0,
2013-01-01, 08:54:04,VALID,917.323,VALID,0,VALID,92.9752,VALID,223.048,VALID,20.5999,VALID,329,VALID,0,
2013-01-01, 08:55:04,VALID,917.456,VALID,0,VALID,91.2828,VALID,224.23,VALID,20.621,VALID,348,VALID,0,
2013-01-01, 08:56:04,VALID,917.491,VALID,0,VALID,90.8864,VALID,225.197,VALID,20.6795,VALID,19,VALID,0,
2013-01-01, 08:57:04,VALID,917.463,VALID,0,VALID,90.8406,VALID,226.379,VALID,20.7966,VALID,12,VALID,0,
2013-01-01, 08:58:04,VALID,917.578,VALID,0,VALID,89.7581,VALID,227.131,VALID,20.8161,VALID,17,VALID,0,
2013-01-01, 08:59:04,VALID,917.485,VALID,0,VALID,90.2308,VALID,227.453,VALID,20.8145,VALID,10,VALID,0,
2013-01-01, 09:00:04,VALID,917.446,VALID,0,VALID,91.2828,VALID,227.131,VALID,20.9136,VALID,10,VALID,0,
2013-01-01, 09:01:04,VALID,917.511,VALID,0,VALID,90.5204,VALID,225.949,VALID,20.9331,VALID,352,VALID,0,
2013-01-01, 09:02:04,VALID,917.551,VALID,0,VALID,88.0962,VALID,224.767,VALID,20.9152,VALID,334,VALID,0,
2013-01-01, 09:03:04,VALID,917.609,VALID,0,VALID,88.2258,VALID,224.015,VALID,20.9542,VALID,352,VALID,0,
2013-01-01, 09:04:04,VALID,917.826,VALID,0,VALID,89.4379,VALID,224.552,VALID,21.0128,VALID,353,VALID,0,
2013-01-01, 09:05:04,VALID,917.677,VALID,0,VALID,90.1164,VALID,226.056,VALID,21.0307,VALID,355,VALID,0,
2013-01-01, 09:06:04,VALID,917.752,VALID,0,VALID,89.598,VALID,227.775,VALID,21.0502,VALID,7,VALID,0,
2013-01-01, 09:07:04,VALID,917.654,VALID,0,VALID,90.1774,VALID,229.494,VALID,21.1689,VALID,7,VALID,0,
2013-01-01, 09:08:04,VALID,917.413,VALID,0,VALID,90.5433,VALID,231.428,VALID,21.2079,VALID,341,VALID,0,
2013-01-01, 09:09:04,VALID,917.624,VALID,0,VALID,91.1608,VALID,233.899,VALID,21.2258,VALID,347,VALID,0,
2013-01-01, 09:10:04,VALID,917.519,VALID,0,VALID,90.3908,VALID,236.478,VALID,21.2258,VALID,2,VALID,0,
2013-01-01, 09:11:04,VALID,917.671,VALID,0,VALID,89.6361,VALID,239.057,VALID,21.2453,VALID,10,VALID,0,
2013-01-01, 09:12:04,VALID,917.747,VALID,0,VALID,87.8751,VALID,242.387,VALID,21.2258,VALID,313,VALID,0,
2013-01-01, 09:13:04,VALID,917.646,VALID,0,VALID,88.2334,VALID,245.718,VALID,21.2648,VALID,312,VALID,0,
2013-01-01, 09:14:04,VALID,917.593,VALID,0,VALID,89.3998,VALID,248.726,VALID,21.3429,VALID,312,VALID,0,
2013-01-01, 09:15:04,VALID,917.745,VALID,0,VALID,88.607,VALID,251.842,VALID,21.3835,VALID,312,VALID,0,
2013-01-01, 09:16:04,VALID,917.616,VALID,0,VALID,88.8128,VALID,254.528,VALID,21.4014,VALID,312,VALID,0,
2013-01-01, 09:17:04,VALID,917.591,VALID,0,VALID,89.5294,VALID,255.925,VALID,21.499,VALID,341,VALID,0,
2013-01-01, 09:18:04,VALID,917.667,VALID,0,VALID,88.9348,VALID,256.784,VALID,21.5575,VALID,17,VALID,0,
2013-01-01, 09:19:04,VALID,917.569,VALID,0,VALID,87.8218,VALID,257.751,VALID,21.5965,VALID,335,VALID,0,
2013-01-01, 09:20:04,VALID,917.853,VALID,0,VALID,87.0289,VALID,258.611,VALID,21.6372,VALID,357,VALID,0,
2013-01-01, 09:21:04,VALID,917.613,VALID,0,VALID,85.8168,VALID,259.9,VALID,21.6177,VALID,325,VALID,0,
2013-01-01, 09:22:04,VALID,917.635,VALID,0,VALID,86.0989,VALID,262.371,VALID,21.5965,VALID,330,VALID,0,
2013-01-01, 09:23:04,VALID,917.726,VALID,0,VALID,88.2105,VALID,265.595,VALID,21.6551,VALID,19,VALID,0,
2013-01-01, 09:24:04,VALID,917.666,VALID,0,VALID,85.8397,VALID,269.57,VALID,21.6551,VALID,5,VALID,0,
2013-01-01, 09:25:04,VALID,917.67,VALID,0,VALID,85.8397,VALID,273.76,VALID,21.6957,VALID,43,VALID,0,
2013-01-01, 09:26:04,VALID,917.641,VALID,0,VALID,85.6033,VALID,278.058,VALID,21.7136,VALID,336,VALID,0,
2013-01-01, 09:27:04,VALID,917.662,VALID,0,VALID,86.8307,VALID,280.851,VALID,21.7331,VALID,352,VALID,0,
2013-01-01, 09:28:04,VALID,917.659,VALID,0,VALID,86.8536,VALID,282.248,VALID,21.7331,VALID,10,VALID,0,
2013-01-01, 09:29:04,VALID,917.718,VALID,0,VALID,87.1509,VALID,283.645,VALID,21.7721,VALID,349,VALID,0,
2013-01-01, 09:30:04,VALID,917.693,VALID,0,VALID,87.6312,VALID,284.612,VALID,21.8697,VALID,349,VALID,0,
2013-01-01, 09:31:04,VALID,917.651,VALID,0,VALID,83.789,VALID,286.653,VALID,21.829,VALID,307,VALID,0,
2013-01-01, 09:32:04,VALID,917.468,VALID,0,VALID,85.2908,VALID,288.909,VALID,21.9104,VALID,307,VALID,0,
2013-01-01, 09:33:04,VALID,917.527,VALID,0,VALID,83.3087,VALID,291.703,VALID,21.8485,VALID,307,VALID,0,
2013-01-01, 09:34:04,VALID,917.77,VALID,0,VALID,83.5298,VALID,294.926,VALID,21.751,VALID,307,VALID,0,
2013-01-01, 09:35:04,VALID,917.685,VALID,0,VALID,84.0329,VALID,297.397,VALID,21.7705,VALID,307,VALID,0,
2013-01-01, 09:36:04,VALID,917.626,VALID,0,VALID,83.5755,VALID,299.224,VALID,21.7917,VALID,307,VALID,0,
2013-01-01, 09:37:04,VALID,917.74,VALID,0,VALID,84.8029,VALID,300.083,VALID,21.829,VALID,321,VALID,0,
2013-01-01, 09:38:04,VALID,917.701,VALID,0,VALID,83.4002,VALID,300.191,VALID,21.9071,VALID,320,VALID,0,
2013-01-01, 09:39:04,VALID,917.635,VALID,0,VALID,81.5934,VALID,299.438,VALID,21.8876,VALID,302,VALID,0,
2013-01-01, 09:40:04,VALID,917.674,VALID,0,VALID,84.8105,VALID,297.934,VALID,21.9266,VALID,302,VALID,0,
2013-01-01, 09:41:04,VALID,917.715,VALID,0,VALID,82.493,VALID,297.182,VALID,21.9868,VALID,302,VALID,0,
2013-01-01, 09:42:04,VALID,917.638,VALID,0,VALID,82.1499,VALID,296.967,VALID,21.9461,VALID,302,VALID,0,
2013-01-01, 09:43:04,VALID,917.758,VALID,0,VALID,82.8665,VALID,297.182,VALID,21.9868,VALID,302,VALID,0,
2013-01-01, 09:44:04,VALID,917.717,VALID,0,VALID,83.8804,VALID,298.042,VALID,21.9851,VALID,302,VALID,0,
2013-01-01, 09:45:04,VALID,917.911,VALID,0,VALID,85.55,VALID,299.546,VALID,22.0242,VALID,302,VALID,0,
2013-01-01, 09:46:04,VALID,917.785,VALID,0,VALID,85.9769,VALID,300.728,VALID,22.1217,VALID,320,VALID,0,
2013-01-01, 09:47:04,VALID,917.706,VALID,0,VALID,83.8957,VALID,301.91,VALID,22.1803,VALID,36,VALID,0,
2013-01-01, 09:48:04,VALID,917.744,VALID,0,VALID,84.3607,VALID,302.984,VALID,22.2388,VALID,315,VALID,0,
2013-01-01, 09:49:04,VALID,917.748,VALID,0,VALID,85.1459,VALID,302.769,VALID,22.2779,VALID,307,VALID,0,
2013-01-01, 09:50:04,VALID,917.781,VALID,0,VALID,82.5235,VALID,302.125,VALID,22.2779,VALID,307,VALID,0,
2013-01-01, 09:51:04,VALID,917.801,VALID,0,VALID,81.258,VALID,301.05,VALID,22.2974,VALID,289,VALID,0,
2013-01-01, 09:52:04,VALID,917.752,VALID,0,VALID,80.8616,VALID,300.083,VALID,22.1803,VALID,288,VALID,0,
2013-01-01, 09:53:04,VALID,917.702,VALID,0,VALID,80.9988,VALID,299.224,VALID,22.1608,VALID,288,VALID,0,
2013-01-01, 09:54:04,VALID,917.66,VALID,0,VALID,81.4105,VALID,298.901,VALID,22.1608,VALID,308,VALID,0,
2013-01-01, 09:55:04,VALID,917.795,VALID,0,VALID,82.432,VALID,299.224,VALID,22.1591,VALID,317,VALID,0,
2013-01-01, 09:56:04,VALID,917.794,VALID,0,VALID,83.3087,VALID,299.976,VALID,22.26,VALID,317,VALID,0,
2013-01-01, 09:57:04,VALID,917.783,VALID,0,VALID,82.2414,VALID,300.943,VALID,22.2974,VALID,317,VALID,0,
2013-01-01, 09:58:04,VALID,917.792,VALID,0,VALID,82.5311,VALID,300.943,VALID,22.3364,VALID,317,VALID,0,
2013-01-01, 09:59:04,VALID,917.78,VALID,0,VALID,83.3087,VALID,300.298,VALID,22.3737,VALID,317,VALID,0,
2013-01-01, 10:00:04,VALID,917.769,VALID,0,VALID,82.9961,VALID,298.149,VALID,22.4323,VALID,318,VALID,0,
2013-01-01, 10:01:04,VALID,917.79,VALID,0,VALID,80.9607,VALID,295.356,VALID,22.4535,VALID,320,VALID,0,
2013-01-01, 10:02:04,VALID,917.763,VALID,0,VALID,81.906,VALID,292.777,VALID,22.4323,VALID,11,VALID,0,
2013-01-01, 10:03:04,VALID,917.795,VALID,0,VALID,82.4396,VALID,291.488,VALID,22.4518,VALID,11,VALID,0,
2013-01-01, 10:04:04,VALID,917.776,VALID,0,VALID,78.4145,VALID,291.488,VALID,22.4908,VALID,339,VALID,0,
2013-01-01, 10:05:04,VALID,917.797,VALID,0,VALID,80.2898,VALID,292.133,VALID,22.4323,VALID,296,VALID,0,
2013-01-01, 10:06:04,VALID,917.822,VALID,0,VALID,83.0495,VALID,293.099,VALID,22.4925,VALID,358,VALID,0,
2013-01-01, 10:07:04,VALID,917.816,VALID,0,VALID,83.2096,VALID,295.248,VALID,22.5511,VALID,49,VALID,0,
2013-01-01, 10:08:04,VALID,917.838,VALID,0,VALID,82.2719,VALID,297.612,VALID,22.6096,VALID,338,VALID,0,
2013-01-01, 10:09:04,VALID,917.841,VALID,0,VALID,80.8692,VALID,300.405,VALID,22.6487,VALID,351,VALID,0,
2013-01-01, 10:10:04,VALID,917.831,VALID,0,VALID,80.1297,VALID,303.736,VALID,22.647,VALID,346,VALID,0,
2013-01-01, 10:11:04,VALID,917.853,VALID,0,VALID,81.6087,VALID,307.389,VALID,22.6877,VALID,346,VALID,0,
2013-01-01, 10:12:04,VALID,917.861,VALID,0,VALID,81.9517,VALID,310.827,VALID,22.6877,VALID,15,VALID,0,
2013-01-01, 10:13:04,VALID,917.861,VALID,0,VALID,81.38,VALID,315.125,VALID,22.686,VALID,15,VALID,0,
2013-01-01, 10:14:04,VALID,917.878,VALID,0,VALID,81.1665,VALID,319.208,VALID,22.7658,VALID,15,VALID,0,
2013-01-01, 10:15:04,VALID,917.857,VALID,0,VALID,80.5643,VALID,323.183,VALID,22.7853,VALID,15,VALID,0,
2013-01-01, 10:16:04,VALID,917.841,VALID,0,VALID,80.9073,VALID,326.943,VALID,22.8634,VALID,15,VALID,0,
2013-01-01, 10:17:04,VALID,917.812,VALID,0,VALID,79.4055,VALID,330.596,VALID,22.8812,VALID,15,VALID,0,
2013-01-01, 10:18:04,VALID,917.835,VALID,0,VALID,79.1692,VALID,334.679,VALID,22.9202,VALID,15,VALID,0,
2013-01-01, 10:19:04,VALID,917.832,VALID,0,VALID,79.8782,VALID,340.051,VALID,22.9805,VALID,15,VALID,0,
2013-01-01, 10:20:04,VALID,917.855,VALID,0,VALID,80.3051,VALID,347.357,VALID,23.0568,VALID,15,VALID,0,
2013-01-01, 10:21:04,VALID,917.803,VALID,0,VALID,80.2136,VALID,356.382,VALID,23.1349,VALID,1,VALID,0,
2013-01-01, 10:22:04,VALID,917.821,VALID,0,VALID,82.6302,VALID,367.771,VALID,23.1935,VALID,1,VALID,0,
2013-01-01, 10:23:04,VALID,917.815,VALID,0,VALID,79.5427,VALID,381.094,VALID,23.2325,VALID,1,VALID,0,
2013-01-01, 10:24:04,VALID,917.789,VALID,0,VALID,80.3584,VALID,396.458,VALID,23.3301,VALID,1,VALID,0,
2013-01-01, 10:25:04,VALID,917.78,VALID,0,VALID,79.7181,VALID,414.293,VALID,23.41,VALID,1,VALID,0,
2013-01-01, 10:26:04,VALID,917.768,VALID,0,VALID,77.1032,VALID,436.104,VALID,23.3123,VALID,356,VALID,0,
2013-01-01, 10:27:04,VALID,917.776,VALID,0,VALID,79.2073,VALID,471.667,VALID,23.1349,VALID,302,VALID,0,
2013-01-01, 10:28:04,VALID,917.734,VALID,0,VALID,80.3889,VALID,557.834,VALID,23.0568,VALID,332,VALID,0,
2013-01-01, 10:29:04,VALID,917.749,VALID,0,VALID,82.1347,VALID,580.934,VALID,23.1757,VALID,350,VALID,0,
2013-01-01, 10:30:04,VALID,917.741,VALID,0,VALID,82.1271,VALID,585.017,VALID,23.3496,VALID,356,VALID,0,
2013-01-01, 10:31:04,VALID,917.742,VALID,0,VALID,80.4118,VALID,530.115,VALID,23.4667,VALID,6,VALID,0,
2013-01-01, 10:32:04,VALID,917.74,VALID,0,VALID,81.4257,VALID,516.792,VALID,23.5058,VALID,34,VALID,0,
2013-01-01, 10:33:04,VALID,917.734,VALID,0,VALID,81.3419,VALID,516.255,VALID,23.6052,VALID,333,VALID,0,
2013-01-01, 10:34:04,VALID,917.703,VALID,0,VALID,77.9266,VALID,515.18,VALID,23.6034,VALID,285,VALID,0,
2013-01-01, 10:35:04,VALID,917.711,VALID,0,VALID,76.905,VALID,507.337,VALID,23.6815,VALID,301,VALID,0,
2013-01-01, 10:36:04,VALID,917.712,VALID,0,VALID,77.2786,VALID,511.635,VALID,23.74,VALID,301,VALID,0,
2013-01-01, 10:37:04,VALID,917.698,VALID,0,VALID,75.3803,VALID,555.363,VALID,23.7986,VALID,301,VALID,0,
2013-01-01, 10:38:04,VALID,917.683,VALID,0,VALID,77.3091,VALID,617.679,VALID,23.9548,VALID,301,VALID,0,
2013-01-01, 10:39:04,VALID,917.678,VALID,0,VALID,75.6014,VALID,609.514,VALID,24.0915,VALID,12,VALID,0,
2013-01-01, 10:40:04,VALID,917.626,VALID,0,VALID,73.2077,VALID,792.056,VALID,24.2281,VALID,32,VALID,0,
2013-01-01, 10:41:04,VALID,917.634,VALID,0,VALID,74.8391,VALID,664.416,VALID,24.3063,VALID,25,VALID,0,
2013-01-01, 10:42:04,VALID,917.651,VALID,0,VALID,74.9915,VALID,601.993,VALID,24.4234,VALID,12,VALID,0,
2013-01-01, 10:43:04,VALID,917.642,VALID,0,VALID,74.7552,VALID,576.099,VALID,24.5406,VALID,358,VALID,0,
2013-01-01, 10:44:04,VALID,917.65,VALID,0,VALID,77.9189,VALID,510.345,VALID,24.6968,VALID,10,VALID,0,
2013-01-01, 10:45:04,VALID,917.672,VALID,0,VALID,70.1126,VALID,512.387,VALID,24.7163,VALID,222,VALID,0,
2013-01-01, 10:46:04,VALID,917.659,VALID,0,VALID,71.3247,VALID,491.758,VALID,24.6577,VALID,313,VALID,0,
2013-01-01, 10:47:04,VALID,917.625,VALID,0,VALID,72.8494,VALID,487.783,VALID,24.4234,VALID,38,VALID,0,
2013-01-01, 10:48:04,VALID,917.643,VALID,0,VALID,75.1059,VALID,479.295,VALID,24.3453,VALID,21,VALID,0,
2013-01-01, 10:49:04,VALID,917.629,VALID,0,VALID,74.7019,VALID,477.039,VALID,24.3435,VALID,334,VALID,0,
2013-01-01, 10:50:04,VALID,917.674,VALID,0,VALID,72.6664,VALID,486.279,VALID,24.283,VALID,343,VALID,0,
2013-01-01, 10:51:04,VALID,917.642,VALID,0,VALID,73.5202,VALID,479.617,VALID,24.4216,VALID,9,VALID,0,
2013-01-01, 10:52:04,VALID,917.622,VALID,0,VALID,72.552,VALID,483.485,VALID,24.4783,VALID,38,VALID,0,
2013-01-01, 10:53:04,VALID,917.633,VALID,0,VALID,73.444,VALID,498.527,VALID,24.4997,VALID,284,VALID,0,
2013-01-01, 10:54:04,VALID,917.581,VALID,0,VALID,73.505,VALID,483.055,VALID,24.5368,VALID,34,VALID,0,
2013-01-01, 10:55:04,VALID,917.559,VALID,0,VALID,73.3144,VALID,483.378,VALID,24.5564,VALID,26,VALID,0,
2013-01-01, 10:56:04,VALID,917.519,VALID,0,VALID,70.4709,VALID,482.088,VALID,24.5582,VALID,29,VALID,0,
2013-01-01, 10:57:04,VALID,917.543,VALID,0,VALID,72.3996,VALID,480.907,VALID,24.4783,VALID,24,VALID,0,
2013-01-01, 10:58:04,VALID,917.544,VALID,0,VALID,73.9243,VALID,479.832,VALID,24.5778,VALID,348,VALID,0,
2013-01-01, 10:59:04,VALID,917.531,VALID,0,VALID,73.8785,VALID,476.394,VALID,24.6773,VALID,290,VALID,0,
2013-01-01, 11:00:04,VALID,917.558,VALID,0,VALID,73.9548,VALID,475.105,VALID,24.8511,VALID,359,VALID,0,
2013-01-01, 11:01:04,VALID,917.535,VALID,0,VALID,70.3336,VALID,473.386,VALID,24.9897,VALID,359,VALID,0,
2013-01-01, 11:02:04,VALID,917.526,VALID,0,VALID,70.2117,VALID,471.022,VALID,25.0874,VALID,359,VALID,0,
2013-01-01, 11:03:04,VALID,917.5,VALID,0,VALID,73.848,VALID,468.981,VALID,25.0874,VALID,151,VALID,0,
2013-01-01, 11:04:04,VALID,917.451,VALID,0,VALID,68.9157,VALID,465.543,VALID,25.105,VALID,36,VALID,0,
2013-01-01, 11:05:04,VALID,917.455,VALID,0,VALID,72.9103,VALID,464.576,VALID,25.0093,VALID,340,VALID,0,
2013-01-01, 11:06:04,VALID,917.458,VALID,0,VALID,71.3323,VALID,463.716,VALID,24.9878,VALID,19,VALID,0,
2013-01-01, 11:07:04,VALID,917.428,VALID,0,VALID,70.9435,VALID,464.038,VALID,24.9488,VALID,26,VALID,0,
2013-01-01, 11:08:04,VALID,917.454,VALID,0,VALID,75.1211,VALID,459.741,VALID,24.773,VALID,17,VALID,0,
2013-01-01, 11:09:04,VALID,917.388,VALID,0,VALID,73.1772,VALID,459.311,VALID,24.773,VALID,46,VALID,0,
2013-01-01, 11:10:04,VALID,917.384,VALID,0,VALID,73.2153,VALID,467.047,VALID,24.814,VALID,34,VALID,0,
2013-01-01, 11:11:04,VALID,917.4,VALID,0,VALID,72.9332,VALID,475.427,VALID,24.853,VALID,27,VALID,0,
2013-01-01, 11:12:04,VALID,917.381,VALID,0,VALID,73.909,VALID,487.998,VALID,24.8511,VALID,33,VALID,0,
2013-01-01, 11:13:04,VALID,917.357,VALID,0,VALID,70.7453,VALID,492.725,VALID,24.9683,VALID,41,VALID,0,
2013-01-01, 11:14:04,VALID,917.359,VALID,0,VALID,71.2637,VALID,507.552,VALID,25.1245,VALID,40,VALID,0,
2013-01-01, 11:15:04,VALID,917.325,VALID,0,VALID,71.6982,VALID,603.497,VALID,25.3022,VALID,35,VALID,0,
2013-01-01, 11:16:04,VALID,917.338,VALID,0,VALID,72.27,VALID,648.945,VALID,25.4585,VALID,27,VALID,0,
2013-01-01, 11:17:04,VALID,917.337,VALID,0,VALID,68.1762,VALID,579.108,VALID,25.5366,VALID,352,VALID,0,
2013-01-01, 11:18:04,VALID,917.351,VALID,0,VALID,68.0924,VALID,591.678,VALID,25.4975,VALID,271,VALID,0,
2013-01-01, 11:19:04,VALID,917.295,VALID,0,VALID,68.9462,VALID,545.371,VALID,25.5933,VALID,267,VALID,0,
2013-01-01, 11:20:04,VALID,917.335,VALID,0,VALID,71.439,VALID,535.594,VALID,25.6128,VALID,158,VALID,0,
2013-01-01, 11:21:04,VALID,917.297,VALID,0,VALID,67.1166,VALID,566.43,VALID,25.6733,VALID,220,VALID,0,
2013-01-01, 11:22:04,VALID,917.278,VALID,0,VALID,67.9628,VALID,502.502,VALID,25.6909,VALID,23,VALID,0,
2013-01-01, 11:23:04,VALID,917.284,VALID,0,VALID,69.8,VALID,504.006,VALID,25.6128,VALID,20,VALID,0,
2013-01-01, 11:24:04,VALID,917.3,VALID,0,VALID,68.7403,VALID,501.858,VALID,25.6343,VALID,346,VALID,0,
2013-01-01, 11:25:04,VALID,917.31,VALID,0,VALID,69.5942,VALID,482.733,VALID,25.5347,VALID,346,VALID,0,
2013-01-01, 11:26:04,VALID,917.279,VALID,0,VALID,71.3323,VALID,511.957,VALID,25.5151,VALID,30,VALID,0,
2013-01-01, 11:27:04,VALID,917.272,VALID,0,VALID,69.3807,VALID,475.642,VALID,25.5347,VALID,5,VALID,0,
2013-01-01, 11:28:04,VALID,917.287,VALID,0,VALID,69.2664,VALID,514.858,VALID,25.4956,VALID,352,VALID,0,
2013-01-01, 11:29:04,VALID,917.274,VALID,0,VALID,69.3197,VALID,512.387,VALID,25.398,VALID,262,VALID,0,
2013-01-01, 11:30:04,VALID,917.223,VALID,0,VALID,70.7224,VALID,493.047,VALID,25.3394,VALID,37,VALID,0,
2013-01-01, 11:31:04,VALID,917.232,VALID,0,VALID,72.5825,VALID,482.841,VALID,25.398,VALID,30,VALID,0,
2013-01-01, 11:32:04,VALID,917.254,VALID,0,VALID,72.4834,VALID,476.501,VALID,25.4956,VALID,27,VALID,0,
2013-01-01, 11:33:04,VALID,917.215,VALID,0,VALID,69.1901,VALID,467.476,VALID,25.5151,VALID,332,VALID,0,
2013-01-01, 11:34:04,VALID,917.207,VALID,0,VALID,72.1251,VALID,455.765,VALID,25.437,VALID,44,VALID,0,
2013-01-01, 11:35:04,VALID,917.202,VALID,0,VALID,73.1848,VALID,448.137,VALID,25.396,VALID,14,VALID,0,
2013-01-01, 11:36:04,VALID,917.155,VALID,0,VALID,70.4327,VALID,436.963,VALID,25.4761,VALID,66,VALID,0,
2013-01-01, 11:37:04,VALID,917.153,VALID,0,VALID,69.4646,VALID,436.963,VALID,25.5542,VALID,25,VALID,0,
2013-01-01, 11:38:04,VALID,917.153,VALID,0,VALID,70.9206,VALID,435.459,VALID,25.5933,VALID,21,VALID,0,
2013-01-01, 11:39:04,VALID,917.121,VALID,0,VALID,72.2242,VALID,435.459,VALID,25.6128,VALID,22,VALID,0,
2013-01-01, 11:40:04,VALID,917.13,VALID,0,VALID,68.9538,VALID,432.021,VALID,25.4741,VALID,276,VALID,0,
2013-01-01, 11:41:04,VALID,917.135,VALID,0,VALID,68.4659,VALID,429.12,VALID,25.4565,VALID,113,VALID,0,
2013-01-01, 11:42:04,VALID,917.073,VALID,0,VALID,69.3045,VALID,424.93,VALID,25.3784,VALID,355,VALID,0,
2013-01-01, 11:43:04,VALID,917.058,VALID,0,VALID,70.7605,VALID,419.987,VALID,25.398,VALID,24,VALID,0,
2013-01-01, 11:44:04,VALID,917.067,VALID,0,VALID,71.3552,VALID,412.574,VALID,25.3198,VALID,62,VALID,0,
2013-01-01, 11:45:04,VALID,917.001,VALID,0,VALID,71.8583,VALID,405.161,VALID,25.3198,VALID,152,VALID,0,
2013-01-01, 11:46:04,VALID,917.066,VALID,0,VALID,73.1009,VALID,397.21,VALID,25.2027,VALID,32,VALID,0,
2013-01-01, 11:47:04,VALID,917.054,VALID,0,VALID,72.6588,VALID,390.334,VALID,25.1441,VALID,23,VALID,0,
2013-01-01, 11:48:04,VALID,917.058,VALID,0,VALID,74.8543,VALID,384.424,VALID,25.1636,VALID,27,VALID,0,
2013-01-01, 11:49:04,VALID,917.097,VALID,0,VALID,73.3601,VALID,381.094,VALID,25.0659,VALID,43,VALID,0,
2013-01-01, 11:50:04,VALID,917.066,VALID,0,VALID,72.4225,VALID,379.697,VALID,25.1441,VALID,8,VALID,0,
2013-01-01, 11:51:04,VALID,917.03,VALID,0,VALID,71.0426,VALID,379.59,VALID,25.0659,VALID,265,VALID,0,
2013-01-01, 11:52:04,VALID,917.039,VALID,0,VALID,73.1009,VALID,380.986,VALID,25.0855,VALID,29,VALID,0,
2013-01-01, 11:53:04,VALID,917.048,VALID,0,VALID,75.5252,VALID,383.995,VALID,25.0074,VALID,46,VALID,0,
2013-01-01, 11:54:04,VALID,916.992,VALID,0,VALID,69.9067,VALID,386.788,VALID,24.9878,VALID,345,VALID,0,
2013-01-01, 11:55:04,VALID,917.017,VALID,0,VALID,71.4085,VALID,390.549,VALID,24.9097,VALID,284,VALID,0,
2013-01-01, 11:56:04,VALID,916.971,VALID,0,VALID,72.4606,VALID,395.706,VALID,24.9683,VALID,284,VALID,0,
2013-01-01, 11:57:04,VALID,916.944,VALID,0,VALID,73.3068,VALID,402.689,VALID,25.0464,VALID,293,VALID,0,
2013-01-01, 11:58:04,VALID,916.908,VALID,0,VALID,72.918,VALID,408.599,VALID,25.2417,VALID,337,VALID,0,
2013-01-01, 11:59:04,VALID,916.942,VALID,0,VALID,72.0337,VALID,411.285,VALID,25.398,VALID,316,VALID,0,
2013-01-01, 12:00:04,VALID,916.956,VALID,0,VALID,72.6435,VALID,409.673,VALID,25.3784,VALID,15,VALID,0,
2013-01-01, 12:01:04,VALID,916.916,VALID,0,VALID,72.0413,VALID,405.59,VALID,25.3784,VALID,20,VALID,0,
2013-01-01, 12:02:04,VALID,916.919,VALID,0,VALID,72.3157,VALID,397.532,VALID,25.3003,VALID,8,VALID,0,
2013-01-01, 12:03:04,VALID,916.945,VALID,0,VALID,72.5902,VALID,387.54,VALID,25.1636,VALID,304,VALID,0,
2013-01-01, 12:04:04,VALID,916.947,VALID,0,VALID,71.1798,VALID,380.449,VALID,25.105,VALID,297,VALID,0,
2013-01-01, 12:05:04,VALID,916.905,VALID,0,VALID,73.9166,VALID,374.755,VALID,25.0074,VALID,20,VALID,0,
2013-01-01, 12:06:04,VALID,916.927,VALID,0,VALID,75.2126,VALID,372.821,VALID,25.0855,VALID,22,VALID,0.140625,
2013-01-01, 12:07:04,VALID,916.9,VALID,0,VALID,73.0933,VALID,375.292,VALID,25.1831,VALID,24,VALID,0,
2013-01-01, 12:08:04,VALID,916.935,VALID,0,VALID,72.5673,VALID,378.623,VALID,25.2027,VALID,27,VALID,0,
2013-01-01, 12:09:04,VALID,916.923,VALID,0,VALID,73.627,VALID,381.846,VALID,25.1245,VALID,38,VALID,0,
2013-01-01, 12:10:04,VALID,916.862,VALID,0,VALID,72.6207,VALID,385.821,VALID,25.0445,VALID,24,VALID,0,
2013-01-01, 12:11:04,VALID,916.88,VALID,0,VALID,73.6498,VALID,389.904,VALID,24.9878,VALID,276,VALID,0,
2013-01-01, 12:12:04,VALID,916.863,VALID,0,VALID,74.5265,VALID,394.846,VALID,24.8902,VALID,13,VALID,0,
2013-01-01, 12:13:04,VALID,916.809,VALID,0,VALID,74.6561,VALID,401.937,VALID,24.9292,VALID,35,VALID,0,
2013-01-01, 12:14:04,VALID,916.862,VALID,0,VALID,75.5023,VALID,409.243,VALID,24.9292,VALID,347,VALID,0,
2013-01-01, 12:15:04,VALID,916.869,VALID,0,VALID,74.5951,VALID,415.153,VALID,24.9097,VALID,2,VALID,0,
2013-01-01, 12:16:04,VALID,916.842,VALID,0,VALID,75.0525,VALID,423.318,VALID,24.8316,VALID,40,VALID,0,